Change the Weather History Date:

Monday, January 6, 2014

  Actual Average (KVLD) Record (KVLD)
Temperature  
Mean Temperature 46 °F 50 °F  
Max Temperature 64 °F 62 °F 63 °F (2015)
Min Temperature 28 °F 39 °F 35 °F (2015)
Degree Days  
Heating Degree Days 19 15  
Month to date heating degree days 90  
Since 1 July heating degree days 703  
Moisture  
Dew Point 31 °F    
Average Humidity 69    
Maximum Humidity 100    
Minimum Humidity 38    
Precipitation  
Precipitation 0.00 in 0.23 in 0.00 in (2015)
Month to date precipitation 1.41  
Year to date precipitation 1.41  
Sea Level Pressure  
Sea Level Pressure 30.15 in    
Wind  
Wind Speed 12 mph (NW)    
Max Wind Speed 22 mph    
Max Gust Speed 31 mph    
Visibility 9 miles    
Events Rain    
T = Trace of Precipitation, MM = Missing Value Source: NWS Daily Summary

Daily Weather History Graph

Daily Weather History Graph

Search for Another Location

Airport or City:

Trip Planner

Search our weather history database for the weather conditions in past years. The results will help you decide how hot, cold, wet, or windy it might be!

Date:

Astronomy

Jan. 06, 2014 Rise Set
Actual Time 7:34 AM EST 5:48 PM EST
Civil Twilight 7:07 AM EST 6:15 PM EST
Nautical Twilight 6:37 AM EST 6:45 PM EST
Astronomical Twilight 6:08 AM EST 7:14 PM EST
Moon 11:14 AM EST (1/6) 11:53 PM EST (1/6)
Length of Visible Light 11h 07m
Length of Day
10h 14m
Waxing Crescent, 34% of the Moon is Illuminated
Jan 6
Waxing Crescent
Jan 7
First Quarter
Jan 15
Full
Jan 24
Last Quarter
Jan 30
New

Hourly Weather History & Observations

Time (EST) Temp. Windchill Dew Point Humidity Pressure Visibility Wind Dir Wind Speed Gust Speed Precip Events Conditions
12:15 AM 60.8 °F - 60.8 °F 100% 29.89 in 4.0 mi SSW 8.1 mph - N/A   Overcast
12:35 AM 60.8 °F - 60.8 °F 100% 29.89 in 4.0 mi SSW 8.1 mph - N/A   Overcast
12:55 AM 60.8 °F - 60.8 °F 100% 29.88 in 4.0 mi SW 9.2 mph 16.1 mph N/A   Overcast
1:15 AM 60.8 °F - 60.8 °F 100% 29.88 in 5.0 mi SW 9.2 mph 16.1 mph N/A   Overcast
1:35 AM 60.8 °F - 60.8 °F 100% 29.87 in 7.0 mi SW 9.2 mph - N/A   Overcast
1:55 AM 60.8 °F - 60.8 °F 100% 29.87 in 7.0 mi SSW 8.1 mph - N/A   Mostly Cloudy
2:15 AM 60.8 °F - 60.8 °F 100% 29.86 in 7.0 mi SSW 8.1 mph - N/A   Mostly Cloudy
2:35 AM 62.6 °F - 62.6 °F 100% 29.86 in 7.0 mi SW 9.2 mph 16.1 mph N/A   Overcast
2:55 AM 62.6 °F - 62.6 °F 100% 29.86 in 7.0 mi SW 11.5 mph 16.1 mph N/A   Overcast
3:15 AM 62.6 °F - 62.6 °F 100% 29.86 in 10.0 mi SW 9.2 mph - N/A   Overcast
3:35 AM 62.6 °F - 62.6 °F 100% 29.86 in 10.0 mi SW 12.7 mph 16.1 mph N/A   Overcast
3:55 AM 64.4 °F - 64.4 °F 100% 29.86 in 10.0 mi SW 11.5 mph 19.6 mph N/A   Overcast
4:15 AM 64.4 °F - 64.4 °F 100% 29.85 in 10.0 mi SW 9.2 mph 16.1 mph N/A   Overcast
4:35 AM 55.4 °F - 55.4 °F 100% 29.90 in 5.0 mi NNW 20.7 mph 31.1 mph N/A Rain Light Rain
4:55 AM 50.0 °F - 50.0 °F 100% 29.93 in 10.0 mi NW 13.8 mph 25.3 mph N/A   Overcast
5:15 AM 48.2 °F - 46.4 °F 93% 29.93 in 10.0 mi NW 12.7 mph 21.9 mph N/A   Overcast
5:35 AM 46.4 °F 40.1 °F 46.4 °F 100% 29.95 in 10.0 mi NW 15.0 mph 20.7 mph N/A   Overcast
5:55 AM 46.4 °F 40.7 °F 44.6 °F 93% 29.96 in 10.0 mi NW 12.7 mph 25.3 mph N/A   Overcast
6:15 AM 44.6 °F 39.2 °F 44.6 °F 100% 29.99 in 5.0 mi NW 10.4 mph 21.9 mph N/A Rain Rain
6:35 AM 44.6 °F 37.8 °F 44.6 °F 100% 29.99 in 7.0 mi NW 15.0 mph 19.6 mph N/A   Drizzle
6:55 AM 42.8 °F 35.4 °F 42.8 °F 100% 30.00 in 10.0 mi NW 15.0 mph 19.6 mph N/A   Overcast
7:15 AM 42.8 °F 34.8 °F 42.8 °F 100% 30.03 in 10.0 mi NW 17.3 mph 27.6 mph N/A   Overcast
7:35 AM 41.0 °F 31.9 °F 37.4 °F 87% 30.04 in 10.0 mi NW 19.6 mph 29.9 mph N/A   Overcast
7:55 AM 41.0 °F 31.6 °F 35.6 °F 81% 30.07 in 10.0 mi NNW 20.7 mph 27.6 mph N/A   Overcast
8:15 AM 39.2 °F 29.6 °F 35.6 °F 87% 30.09 in 10.0 mi NW 19.6 mph 29.9 mph N/A   Overcast
8:35 AM 37.4 °F 27.2 °F 35.6 °F 93% 30.12 in 7.0 mi NW 19.6 mph 25.3 mph N/A   Overcast
8:55 AM 37.4 °F 29.8 °F 33.8 °F 87% 30.13 in 10.0 mi NNW 11.5 mph 23.0 mph N/A   Overcast
9:15 AM 35.6 °F 24.2 °F 33.8 °F 93% 30.15 in 10.0 mi NNW 21.9 mph 28.8 mph N/A   Overcast
9:35 AM 35.6 °F 25.9 °F 32.0 °F 87% 30.17 in 10.0 mi NNW 16.1 mph 27.6 mph N/A   Overcast
9:55 AM 35.6 °F 27.5 °F 32.0 °F 87% 30.19 in 7.0 mi NW 11.5 mph 18.4 mph N/A   Overcast
10:15 AM 35.6 °F 25.2 °F 30.2 °F 81% 30.20 in 7.0 mi NNW 18.4 mph 28.8 mph N/A   Overcast
10:55 AM 37.4 °F 28.2 °F 30.2 °F 75% 30.21 in 10.0 mi NNW 16.1 mph 27.6 mph N/A   Mostly Cloudy
11:15 AM 37.4 °F 28.5 °F 28.4 °F 70% 30.21 in 10.0 mi NNW 15.0 mph 23.0 mph N/A   Scattered Clouds
11:35 AM 37.4 °F 27.2 °F 28.4 °F 70% 30.21 in 10.0 mi North 19.6 mph 27.6 mph N/A   Clear
11:55 AM 37.4 °F 27.2 °F 28.4 °F 70% 30.20 in 7.0 mi NNW 19.6 mph 26.5 mph N/A   Clear
12:15 PM 37.4 °F 28.5 °F 26.6 °F 65% 30.20 in 7.0 mi NNW 15.0 mph 26.5 mph N/A   Clear
12:35 PM 39.2 °F 30.8 °F 28.4 °F 65% 30.20 in 7.0 mi NW 15.0 mph 19.6 mph N/A   Clear
12:55 PM 39.2 °F 31.6 °F 26.6 °F 61% 30.19 in 10.0 mi NNW 12.7 mph 21.9 mph N/A   Clear
1:15 PM 41.0 °F 34.7 °F 24.8 °F 53% 30.19 in 10.0 mi NNW 10.4 mph - N/A   Clear
1:35 PM 41.0 °F 33.9 °F 23.0 °F 49% 30.20 in 10.0 mi NW 12.7 mph 18.4 mph N/A   Clear
1:55 PM 41.0 °F 32.5 °F 23.0 °F 49% 30.19 in 10.0 mi NW 17.3 mph 23.0 mph N/A   Clear
2:15 PM 41.0 °F 33.9 °F 24.8 °F 53% 30.20 in 10.0 mi NW 12.7 mph 20.7 mph N/A   Clear
2:35 PM 41.0 °F 33.9 °F 24.8 °F 53% 30.20 in 10.0 mi NW 12.7 mph 21.9 mph N/A   Clear
2:55 PM 42.8 °F 35.4 °F 23.0 °F 46% 30.20 in 10.0 mi NNW 15.0 mph 19.6 mph N/A   Clear
3:15 PM 41.0 °F 33.9 °F 23.0 °F 49% 30.22 in 7.0 mi NW 12.7 mph 20.7 mph N/A   Clear
3:35 PM 41.0 °F 32.5 °F 21.2 °F 45% 30.22 in 10.0 mi NW 17.3 mph 24.2 mph N/A   Clear
3:55 PM 41.0 °F 32.5 °F 19.4 °F 42% 30.23 in 10.0 mi NW 17.3 mph 20.7 mph N/A   Clear
4:15 PM 41.0 °F 32.8 °F 21.2 °F 45% 30.23 in 7.0 mi NNW 16.1 mph 21.9 mph N/A   Clear
4:35 PM 41.0 °F 32.5 °F 19.4 °F 42% 30.23 in 10.0 mi NW 17.3 mph 27.6 mph N/A   Clear
4:55 PM 37.4 °F 28.5 °F 21.2 °F 52% 30.24 in 7.0 mi WNW 15.0 mph 21.9 mph N/A   Clear
5:15 PM 37.4 °F 28.9 °F 17.6 °F 45% 30.25 in 10.0 mi NW 13.8 mph 26.5 mph N/A   Clear
5:35 PM 37.4 °F 29.8 °F 17.6 °F 45% 30.27 in 10.0 mi NNW 11.5 mph 24.2 mph N/A   Clear
5:55 PM 35.6 °F 25.2 °F 14.0 °F 41% 30.28 in 7.0 mi NW 18.4 mph 24.2 mph N/A   Clear
6:15 PM 35.6 °F 25.9 °F 12.2 °F 38% 30.29 in 10.0 mi NW 16.1 mph 27.6 mph N/A   Clear
6:35 PM 33.8 °F 22.8 °F 12.2 °F 41% 30.30 in 10.0 mi NNW 18.4 mph 25.3 mph N/A   Clear
6:55 PM 33.8 °F 23.2 °F 12.2 °F 41% 30.32 in 10.0 mi NW 17.3 mph 23.0 mph N/A   Clear
7:15 PM 33.8 °F 23.9 °F 10.4 °F 38% 30.33 in 10.0 mi NW 15.0 mph 24.2 mph N/A   Clear
7:35 PM 33.8 °F 23.2 °F 10.4 °F 38% 30.35 in 10.0 mi NW 17.3 mph 23.0 mph N/A   Clear
7:55 PM 33.8 °F 23.9 °F 10.4 °F 38% 30.36 in 10.0 mi NW 15.0 mph 19.6 mph N/A   Clear
8:15 PM 32.0 °F 23.6 °F 10.4 °F 41% 30.37 in 10.0 mi NW 10.4 mph 19.6 mph N/A   Clear
8:35 PM 32.0 °F 21.6 °F 10.4 °F 41% 30.38 in 10.0 mi NW 15.0 mph 20.7 mph N/A   Clear
8:55 PM 32.0 °F 22.5 °F 8.6 °F 38% 30.40 in 10.0 mi NNW 12.7 mph 24.2 mph N/A   Clear
9:15 PM 32.0 °F 22.1 °F 8.6 °F 38% 30.41 in 7.0 mi NNW 13.8 mph 21.9 mph N/A   Clear
9:35 PM 32.0 °F 23.0 °F 8.6 °F 38% 30.42 in 10.0 mi NNW 11.5 mph 20.7 mph N/A   Clear
9:55 PM 30.2 °F 20.8 °F 8.6 °F 40% 30.43 in 10.0 mi NNW 11.5 mph 16.1 mph N/A   Clear
10:15 PM 30.2 °F 21.3 °F 10.4 °F 44% 30.44 in 10.0 mi NNW 10.4 mph - N/A   Clear
10:35 PM 30.2 °F 21.9 °F 10.4 °F 44% 30.44 in 10.0 mi NW 9.2 mph - N/A   Clear
10:55 PM 30.2 °F 21.9 °F 10.4 °F 44% 30.45 in 10.0 mi NNW 9.2 mph - N/A   Clear
11:15 PM 28.4 °F 18.5 °F 8.6 °F 43% 30.45 in 10.0 mi NNW 11.5 mph 17.3 mph N/A   Clear
11:35 PM 28.4 °F 19.1 °F 8.6 °F 43% 30.44 in 10.0 mi NNW 10.4 mph 17.3 mph N/A   Clear
11:55 PM 28.4 °F 20.4 °F 6.8 °F 40% 30.44 in 10.0 mi NW 8.1 mph 16.1 mph N/A   Clear